When you browse on this site, cookies collect data to enhance your experience and personalize the content and advertising you see.
Visit our Privacy Policy to learn more. By continuing to use the site, you agree to this use of cookies and data.
  • In Schweiz
  • Länderverzeichnis
  • Für 7 Tage
  • Wassertemperatur
  • Satellitenkarten
  • Wetterkarte
  • Widgets
  • user-avatar
    Anmelden

    Stündliche Wetter Xishan

    Heute, 26 Mai, Sonntag

    Zeit Temperatur Niederschläge Wind Luftdruck Luftfeuchtigkeit
    00:00 +27°C° 0.6 mm 1 m/S 734 mmHg 94%
    01:00 +26°C° 0 mm 1 m/S 734 mmHg 95%
    02:00 +26°C° 0.2 mm 1 m/S 734 mmHg 95%
    03:00 +26°C° 0.2 mm 1 m/S 734 mmHg 96%
    04:00 +26°C° 0.2 mm 1 m/S 734 mmHg 96%
    05:00 +26°C° 0.2 mm 1 m/S 734 mmHg 95%
    06:00 +27°C° 0.2 mm 1 m/S 735 mmHg 94%
    07:00 +27°C° 0 mm 2 m/S 735 mmHg 93%
    08:00 +27°C° 0.9 mm 2 m/S 735 mmHg 92%
    09:00 +28°C° 0.9 mm 1 m/S 735 mmHg 92%
    10:00 +28°C° 0.9 mm 1 m/S 735 mmHg 92%
    11:00 +29°C° 0.3 mm 1 m/S 735 mmHg 89%
    12:00 +29°C° 0.3 mm 1 m/S 734 mmHg 87%
    13:00 +30°C° 0.3 mm 1 m/S 734 mmHg 84%
    14:00 +31°C° 0.2 mm 1 m/S 733 mmHg 81%
    15:00 +32°C° 0.2 mm 1 m/S 733 mmHg 77%
    16:00 +32°C° 0.2 mm 1 m/S 733 mmHg 74%
    17:00 +31°C° 1.5 mm 1 m/S 733 mmHg 80%
    18:00 +29°C° 1.5 mm 1 m/S 733 mmHg 86%
    19:00 +28°C° 1.5 mm 1 m/S 733 mmHg 93%
    20:00 +28°C° 1.6 mm 1 m/S 734 mmHg 93%
    21:00 +28°C° 1.6 mm 1 m/S 734 mmHg 94%
    22:00 +27°C° 1.6 mm 1 m/S 735 mmHg 94%
    23:00 +27°C° 1.1 mm 1 m/S 735 mmHg 95%

    Morgen, 27 Mai, Montag

    Zeit Temperatur Niederschläge Wind Luftdruck Luftfeuchtigkeit
    00:00 +27°C° 1.1 mm 1 m/S 735 mmHg 95%
    01:00 +27°C° 1.1 mm 1 m/S 735 mmHg 96%
    02:00 +27°C° 1.1 mm 1 m/S 735 mmHg 96%
    03:00 +27°C° 1.1 mm 1 m/S 735 mmHg 97%
    04:00 +26°C° 1.1 mm 1 m/S 735 mmHg 97%
    05:00 +27°C° 1.8 mm 1 m/S 735 mmHg 96%
    06:00 +28°C° 1.8 mm 1 m/S 736 mmHg 94%
    07:00 +28°C° 1.8 mm 1 m/S 736 mmHg 93%
    08:00 +27°C° 1.5 mm 0 m/S 736 mmHg 90%
    09:00 +28°C° 1.5 mm 0 m/S 737 mmHg 87%
    10:00 +29°C° 1.5 mm 0 m/S 737 mmHg 84%
    11:00 +30°C° 1.6 mm 1 m/S 737 mmHg 84%
    12:00 +30°C° 1.6 mm 1 m/S 737 mmHg 84%
    13:00 +30°C° 1.6 mm 1 m/S 737 mmHg 85%
    14:00 +30°C° 1.4 mm 1 m/S 737 mmHg 86%
    15:00 +30°C° 1.4 mm 1 m/S 736 mmHg 86%
    16:00 +29°C° 1.4 mm 1 m/S 736 mmHg 87%
    17:00 +29°C° 1.4 mm 1 m/S 737 mmHg 89%
    18:00 +28°C° 1.4 mm 1 m/S 737 mmHg 91%
    19:00 +27°C° 1.4 mm 1 m/S 738 mmHg 93%
    20:00 +26°C° 1.4 mm 1 m/S 739 mmHg 93%
    21:00 +26°C° 1.4 mm 1 m/S 739 mmHg 94%
    22:00 +25°C° 1.4 mm 1 m/S 740 mmHg 94%
    23:00 +25°C° 0.9 mm 1 m/S 740 mmHg 94%

    übermorgen, 28 Mai, Dienstag

    Zeit Temperatur Niederschläge Wind Luftdruck Luftfeuchtigkeit
    00:00 +24°C° 0.9 mm 1 m/S 740 mmHg 93%
    01:00 +23°C° 0.9 mm 1 m/S 739 mmHg 93%
    02:00 +23°C° 0.1 mm 1 m/S 739 mmHg 92%
    03:00 +23°C° 0.1 mm 1 m/S 739 mmHg 92%
    04:00 +23°C° 0.1 mm 1 m/S 739 mmHg 91%
    05:00 +23°C° 0 mm 1 m/S 740 mmHg 90%
    06:00 +23°C° 0 mm 1 m/S 740 mmHg 88%
    07:00 +23°C° 0 mm 1 m/S 740 mmHg 87%
    08:00 +24°C° 0 mm 2 m/S 741 mmHg 81%
    09:00 +25°C° 0 mm 2 m/S 741 mmHg 75%
    10:00 +26°C° 0 mm 2 m/S 741 mmHg 70%
    11:00 +26°C° 0 mm 2 m/S 741 mmHg 69%
    12:00 +26°C° 0 mm 2 m/S 741 mmHg 69%
    13:00 +26°C° 0 mm 2 m/S 741 mmHg 68%
    14:00 +26°C° 0 mm 2 m/S 740 mmHg 70%
    15:00 +26°C° 0 mm 2 m/S 740 mmHg 71%
    16:00 +25°C° 0 mm 2 m/S 740 mmHg 73%
    17:00 +24°C° 0 mm 2 m/S 740 mmHg 76%
    18:00 +23°C° 0 mm 1 m/S 740 mmHg 80%
    19:00 +22°C° 0 mm 1 m/S 740 mmHg 84%
    20:00 +22°C° 0.1 mm 1 m/S 741 mmHg 84%
    21:00 +22°C° 0.1 mm 1 m/S 741 mmHg 84%
    22:00 +22°C° 0.1 mm 1 m/S 742 mmHg 84%
    23:00 +22°C° 0.1 mm 1 m/S 741 mmHg 85%

    29 Mai, Mittwoch

    Zeit Temperatur Niederschläge Wind Luftdruck Luftfeuchtigkeit
    00:00 +22°C° 0.1 mm 1 m/S 741 mmHg 85%
    01:00 +22°C° 0.1 mm 1 m/S 740 mmHg 85%
    02:00 +22°C° 0.3 mm 1 m/S 740 mmHg 86%
    03:00 +21°C° 0.3 mm 1 m/S 740 mmHg 88%
    04:00 +21°C° 0.3 mm 1 m/S 740 mmHg 89%
    05:00 +21°C° 0.3 mm 1 m/S 740 mmHg 90%
    06:00 +21°C° 0.3 mm 1 m/S 740 mmHg 90%
    07:00 +21°C° 0.3 mm 1 m/S 741 mmHg 91%
    08:00 +23°C° 0 mm 1 m/S 741 mmHg 85%
    09:00 +25°C° 0 mm 1 m/S 741 mmHg 78%
    10:00 +26°C° 0 mm 1 m/S 741 mmHg 72%
    11:00 +28°C° 0 mm 1 m/S 741 mmHg 70%
    12:00 +29°C° 0 mm 1 m/S 740 mmHg 67%
    13:00 +30°C° 0 mm 1 m/S 739 mmHg 65%
    14:00 +30°C° 0 mm 1 m/S 739 mmHg 66%
    15:00 +29°C° 0 mm 1 m/S 738 mmHg 68%
    16:00 +29°C° 0 mm 1 m/S 738 mmHg 70%
    17:00 +28°C° 0 mm 1 m/S 738 mmHg 75%
    18:00 +27°C° 0 mm 1 m/S 738 mmHg 80%
    19:00 +26°C° 0 mm 1 m/S 738 mmHg 85%
    20:00 +25°C° 0 mm 1 m/S 738 mmHg 86%
    21:00 +25°C° 0 mm 1 m/S 739 mmHg 87%
    22:00 +23°C° 0 mm 0 m/S 739 mmHg 88%
    23:00 +23°C° 0.1 mm 0 m/S 739 mmHg 88%

    30 Mai, Donnerstag

    Zeit Temperatur Niederschläge Wind Luftdruck Luftfeuchtigkeit
    00:00 +23°C° 0.1 mm 0 m/S 739 mmHg 88%
    01:00 +23°C° 0.1 mm 0 m/S 738 mmHg 88%
    02:00 +23°C° 0.3 mm 0 m/S 738 mmHg 90%
    03:00 +23°C° 0.3 mm 0 m/S 738 mmHg 91%
    04:00 +22°C° 0.3 mm 0 m/S 738 mmHg 92%
    05:00 +23°C° 0.3 mm 0 m/S 738 mmHg 92%
    06:00 +23°C° 0.3 mm 0 m/S 738 mmHg 92%
    07:00 +23°C° 0.3 mm 0 m/S 739 mmHg 92%
    08:00 +24°C° 0.2 mm 0 m/S 739 mmHg 91%
    09:00 +26°C° 0.2 mm 1 m/S 739 mmHg 89%
    10:00 +27°C° 0.2 mm 1 m/S 739 mmHg 88%
    11:00 +28°C° 0.1 mm 1 m/S 738 mmHg 82%
    12:00 +30°C° 0.1 mm 1 m/S 738 mmHg 77%
    13:00 +32°C° 0.1 mm 1 m/S 737 mmHg 71%
    14:00 +32°C° 0.3 mm 1 m/S 737 mmHg 70%
    15:00 +32°C° 0.3 mm 1 m/S 736 mmHg 69%
    16:00 +33°C° 0.3 mm 1 m/S 735 mmHg 68%
    17:00 +31°C° 0.6 mm 1 m/S 736 mmHg 75%
    18:00 +30°C° 0.6 mm 1 m/S 736 mmHg 82%
    19:00 +28°C° 0.6 mm 1 m/S 736 mmHg 88%
    20:00 +28°C° 2.3 mm 1 m/S 737 mmHg 91%
    21:00 +27°C° 2.3 mm 1 m/S 738 mmHg 93%
    22:00 +27°C° 2.3 mm 1 m/S 738 mmHg 95%
    23:00 +27°C° 2.3 mm 1 m/S 738 mmHg 96%

    31 Mai, Freitag

    Zeit Temperatur Niederschläge Wind Luftdruck Luftfeuchtigkeit
    00:00 +26°C° 2.3 mm 1 m/S 738 mmHg 96%
    01:00 +26°C° 2.3 mm 1 m/S 737 mmHg 97%
    02:00 +26°C° 2.8 mm 1 m/S 737 mmHg 97%
    03:00 +24°C° 2.8 mm 0 m/S 737 mmHg 97%
    04:00 +24°C° 2.8 mm 0 m/S 737 mmHg 97%
    05:00 +24°C° 2.5 mm 0 m/S 738 mmHg 97%
    06:00 +24°C° 2.5 mm 0 m/S 738 mmHg 97%
    07:00 +24°C° 2.5 mm 0 m/S 738 mmHg 97%
    08:00 +24°C° 1 mm 0 m/S 738 mmHg 96%
    09:00 +27°C° 1 mm 1 m/S 738 mmHg 95%
    10:00 +27°C° 1 mm 1 m/S 738 mmHg 94%
    11:00 +26°C° 2.6 mm 1 m/S 738 mmHg 95%
    12:00 +26°C° 2.6 mm 1 m/S 737 mmHg 96%
    13:00 +26°C° 2.6 mm 1 m/S 737 mmHg 97%
    14:00 +26°C° 1.3 mm 1 m/S 737 mmHg 96%
    15:00 +26°C° 1.3 mm 1 m/S 736 mmHg 96%
    16:00 +26°C° 1.3 mm 1 m/S 736 mmHg 95%
    17:00 +23°C° 0 mm 0 m/S 736 mmHg 95%
    18:00 +23°C° 0 mm 0 m/S 736 mmHg 95%
    19:00 +23°C° 0 mm 0 m/S 737 mmHg 95%
    20:00 +22°C° 0 mm 0 m/S 737 mmHg 95%
    21:00 +22°C° 0 mm 0 m/S 737 mmHg 95%
    22:00 +22°C° 0 mm 0 m/S 737 mmHg 95%
    23:00 +22°C° 0.1 mm 0 m/S 737 mmHg 95%
    Mehr zeigen